Regional Weather Roundup
Issued by NWS Sterling, VA

Home | Current Version | Previous Version | Text Only | Print | Product List | Glossary Off
Versions: 1 2 3 4 5 6 7 8 9 10 11 12 13 14 15 16 17 18 19 20 21 22 23 24 25 26 27 28

000
ASUS41 KLWX 190011
RWRLWX

REGIONAL WEATHER ROUNDUP
NATIONAL WEATHER SERVICE BALTIMORE MD/WASHINGTON DC
700 PM EST THU JAN 18 2018

Note: "FAIR" indicates few or no clouds below 12,000 feet
with no significant weather and/or obstructions to visibility.
 TC=TEMPERATURE CELSIUS

 * =Non NWS site. Station does not report precipitation (e.g. rain,
    snow, etc.), thunder, or fog.

DCZ001-MDZ009-015-VAZ040>042-051-053>054-190100-
WASHINGTON METRO

CITY           SKY/WX    TMP DP  RH WIND       PRES   REMARKS
WASHINGTON NAT FAIR      42   8  24 W3        30.09R
DULLES         FAIR      32   6  33 CALM      30.08R
ANDREWS AFB    FAIR      32   9  38 W3        30.07R
FT BELVOIR     FAIR      31   9  39 CALM      30.09R
QUANTICO       CLEAR     35  16  45 S3        30.10R
COLLEGE PARK*  FAIR      32   9  38 CALM      30.08R
LEESBURG*      FAIR      41   9  26 NW14      30.09R WCI  33
MANASSAS*      FAIR      29  16  58 CALM      30.09R
GAITHERSBURG*  FAIR      33   7  33 W5        30.07R WCI  29

$$

MDZ006>007-011-014-190100-
BALTIMORE METRO

CITY           SKY/WX    TMP DP  RH WIND       PRES   REMARKS
BWI AIRPORT    FAIR      35   8  32 W7        30.07R WCI  29
MD SCIENCE CTR   N/A     39   8  27 MISG      30.07R
MARTIN STATE   CLEAR     34  19  55 CALM      30.09R
ANNAPOLIS      FAIR      42   6  22 W3        30.08R
FORT MEADE*    FAIR      32  10  40 W5        30.10R WCI  27

$$

MDZ012-015-019>023-190100-
MARYLAND EASTERN SHORE

CITY           SKY/WX    TMP DP  RH WIND       PRES   REMARKS
OCEAN CITY     FAIR      30  15  53 SW5       30.10R WCI  25
SALISBURY      FAIR      28  15  58 CALM      30.09R
BAY BRIDGE AP* FAIR      37  14  38 NW9       30.08R WCI  31
CAMBRIDGE*     CLEAR     32  12  43 CALM      30.09R
EASTON*        CLEAR     32  16  51 W5        30.12R WCI  27

$$

MDZ017>025-190100-
SOUTHERN MARYLAND

CITY           SKY/WX    TMP DP  RH WIND       PRES   REMARKS
PATUXENT RIVER NOT AVBL
ST INIGOES     FAIR      36  19  50 SW9       30.09R WCI  29
LEONARDTOWN*   FAIR      34  14  44 SW3       30.11R

$$

MDZ003>005-190100-
NORTH CENTRAL MARYLAND

CITY           SKY/WX    TMP DP  RH WIND       PRES   REMARKS
FREDERICK*     CLEAR     37  -4  17 CALM      30.10R
HAGERSTOWN APT FAIR      34  10  37 W13       30.06R WCI  25
WESTMINSTER*   FAIR      34  12  40 W7        30.03R WCI  28

$$

MDZ501>502-190100-
WESTERN MARYLAND

CITY           SKY/WX    TMP DP  RH WIND       PRES   REMARKS
OAKLAND*       FAIR      19   7  58 W14G24    30.03S WCI   6
CUMBERLAND*    FAIR      32   7  34 W8        30.15R WCI  25

$$

VAZ025>031-190100-
SHENANDOAH VALLEY

CITY           SKY/WX    TMP DP  RH WIND       PRES   REMARKS
WINCHESTER*    FAIR      37   1  22 NW12      30.08R WCI  30
FRONT ROYAL*   FAIR      37  10  32 SE5       30.05S WCI  34
LURAY*         FAIR      32  18  55 CALM      30.07R
NEW MARKET*    FAIR      29  13  52 CALM      30.06R
STAUNTON*      FAIR      34  10  36 CALM      30.09R
WAYNESBORO*    FAIR      37   6  28 SW8       30.07R WCI  30

$$

WVZ021-048>050-054>055-190100-
EASTERN WEST VIRGINIA PANHANDLE

CITY           SKY/WX    TMP DP  RH WIND       PRES   REMARKS
MARTINSBURG    FAIR      35   4  27 W9        30.06R WCI  28
PETERSBURG*    FAIR      38  -1  19 SW14G23   30.11R WCI  30

$$

VAZ036>039-050-190100-
CENTRAL FOOTHILLS

CITY           SKY/WX    TMP DP  RH WIND       PRES   REMARKS
CHARLOTTESVILL FAIR      35  11  36 S8        30.06R WCI  29
CULPEPER*      FAIR      33  10  38 S5        30.09R WCI  28
ORANGE*        FAIR      34  12  40 CALM      30.08R
GORDONSVILLE*  FAIR      30  16  57 SW3       30.08R
WARRENTON*     FAIR      31   8  38 SW5       30.07R WCI  26

$$

VAZ055>057-190100-
NORTH AND CENTRAL PIEDMONT

CITY           SKY/WX    TMP DP  RH WIND       PRES   REMARKS
FREDERICKSBRG* FAIR      36  16  43 CALM      30.09R
STAFFORD*      FAIR      38  12  34 SW3       30.13R

$$

NCZ024-NYZ072-PAZ021-071-VAZ022-071-190100-
OTHER REGIONAL OBSERVATIONS

CITY           SKY/WX    TMP DP  RH WIND       PRES   REMARKS
NEW YORK CITY  FAIR      30  13  49 VRB6      30.04R WCI  24
PHILADELPHIA   FAIR      32  10  40 NW7       30.08R WCI  26
PITTSBURGH     FAIR      25  10  53 SW9       30.12R WCI  15
ROANOKE        FAIR      35   9  33 W13       30.17R WCI  26
RICHMOND       FAIR      36  15  42 W12       30.12R WCI  28
RALEIGH        FAIR      25  20  81 SW8       30.21S WCI  16

$$

ANZ530>537-190100-
MARINE OBSERVATIONS

STATION/POSITION TIME  TEMP    WIND        PRES
                       AIR SEA DIR/SP/G
                 (UTC) (F)     (DEG/KT/KT) (MB)
THOMAS PT LIGHT  0000   40 32  280/  6/  7   N/A
BALT KEY BRIDGE  2348   39     260/  8/  9 1018.3R
COVE POINT       2348   38     270/ 10/ 14 1019.3R
LEWISETTA        2348   38 31  250/  8/  9 1019.4R
SOLOMONS ISLAND  2348   36 34  240/  8/ 10 1018.5R
PINEY POINT      2336          290/  6/  6   N/A

$$





USA.gov is the U.S. government's official web portal to all federal, state and local government web resources and services.